Year,Month,Day,Hour,Minute,Value (Times are PST for windspeed in km/hr)
2021,09,30,00,00,28.90
2021,09,30,00,01,24.20
2021,09,30,00,02,24.20
2021,09,30,00,03,29.80
2021,09,30,00,04,31.30
2021,09,30,00,05,28.70
2021,09,30,00,06,29.70
2021,09,30,00,07,29.90
2021,09,30,00,08,26.00
2021,09,30,00,09,26.80
2021,09,30,00,10,27.20
2021,09,30,00,11,28.80
2021,09,30,00,12,26.60
2021,09,30,00,13,27.50
2021,09,30,00,14,25.90
2021,09,30,00,15,25.60
2021,09,30,00,16,24.70
2021,09,30,00,17,24.10
2021,09,30,00,18,25.90
2021,09,30,00,19,23.10
2021,09,30,00,20,18.50
2021,09,30,00,21,26.50
2021,09,30,00,22,22.90
2021,09,30,00,23,24.10
2021,09,30,00,24,22.70
2021,09,30,00,25,16.50
2021,09,30,00,26,22.80
2021,09,30,00,27,24.30
2021,09,30,00,28,23.20
2021,09,30,00,29,21.30
2021,09,30,00,30,23.20
2021,09,30,00,31,22.10
2021,09,30,00,32,21.30
2021,09,30,00,33,22.20
2021,09,30,00,34,24.40
2021,09,30,00,35,25.20
2021,09,30,00,36,24.30
2021,09,30,00,37,26.00
2021,09,30,00,38,26.00
2021,09,30,00,39,25.70
2021,09,30,00,40,25.70
2021,09,30,00,41,23.60
2021,09,30,00,42,27.60
2021,09,30,00,43,24.90
2021,09,30,00,44,24.00
2021,09,30,00,45,28.30
2021,09,30,00,46,28.60
2021,09,30,00,47,22.80
2021,09,30,00,48,27.40
2021,09,30,00,49,26.30
2021,09,30,00,50,27.00
2021,09,30,00,51,26.40
2021,09,30,00,52,26.50
2021,09,30,00,53,26.40
2021,09,30,00,54,32.20
2021,09,30,00,55,27.90
2021,09,30,00,56,25.20
2021,09,30,00,57,29.90
2021,09,30,00,58,33.40
2021,09,30,00,59,32.80
2021,09,30,01,00,31.80
2021,09,30,01,01,30.70
2021,09,30,01,02,34.00
2021,09,30,01,03,29.90
2021,09,30,01,04,27.50
2021,09,30,01,05,26.60
2021,09,30,01,06,30.60
2021,09,30,01,07,29.70
2021,09,30,01,08,30.00
2021,09,30,01,09,29.20
2021,09,30,01,10,24.70
2021,09,30,01,11,26.10
2021,09,30,01,12,27.30
2021,09,30,01,13,25.60
2021,09,30,01,14,27.40
2021,09,30,01,15,27.40
2021,09,30,01,16,25.70
2021,09,30,01,17,25.40
2021,09,30,01,18,22.40
2021,09,30,01,19,26.50
2021,09,30,01,20,27.70
2021,09,30,01,21,25.20
2021,09,30,01,22,27.80
2021,09,30,01,23,28.20
2021,09,30,01,24,26.20
2021,09,30,01,25,22.00
2021,09,30,01,26,24.20
2021,09,30,01,27,23.10
2021,09,30,01,28,19.80
2021,09,30,01,29,21.00
2021,09,30,01,30,26.00
2021,09,30,01,31,22.90
2021,09,30,01,32,21.60
2021,09,30,01,33,23.20
2021,09,30,01,34,25.60
2021,09,30,01,35,26.60
2021,09,30,01,36,26.50
2021,09,30,01,37,17.50
2021,09,30,01,38,22.00
2021,09,30,01,39,24.00
2021,09,30,01,40,26.70
2021,09,30,01,41,25.20
2021,09,30,01,42,25.40
2021,09,30,01,43,25.20
2021,09,30,01,44,21.90
2021,09,30,01,45,20.60
2021,09,30,01,46,22.20
2021,09,30,01,47,20.80
2021,09,30,01,48,22.30
2021,09,30,01,49,19.20
2021,09,30,01,50,21.10
2021,09,30,01,51,19.10
2021,09,30,01,52,18.80
2021,09,30,01,53,21.40
2021,09,30,01,54,24.50
2021,09,30,01,55,23.20
2021,09,30,01,56,23.80
2021,09,30,01,57,19.20
2021,09,30,01,58,25.30
2021,09,30,01,59,22.00
2021,09,30,02,00,21.30
2021,09,30,02,01,22.60
2021,09,30,02,02,20.40
2021,09,30,02,03,19.70
2021,09,30,02,04,24.50
2021,09,30,02,05,27.80
2021,09,30,02,06,28.10
2021,09,30,02,07,27.60
2021,09,30,02,08,29.80
2021,09,30,02,09,23.80
2021,09,30,02,10,27.00
2021,09,30,02,11,27.40
2021,09,30,02,12,26.80
2021,09,30,02,13,21.70
2021,09,30,02,14,25.20
2021,09,30,02,15,22.20
2021,09,30,02,16,20.90
2021,09,30,02,17,24.30
2021,09,30,02,18,20.00
2021,09,30,02,19,24.20
2021,09,30,02,20,25.00
2021,09,30,02,21,25.90
2021,09,30,02,22,27.50
2021,09,30,02,23,24.40
2021,09,30,02,24,24.60
2021,09,30,02,25,28.70
2021,09,30,02,26,26.00
2021,09,30,02,27,27.90
2021,09,30,02,28,28.10
2021,09,30,02,29,28.20
2021,09,30,02,30,26.00
2021,09,30,02,31,25.50
2021,09,30,02,32,27.60
2021,09,30,02,33,23.00
2021,09,30,02,34,23.30
2021,09,30,02,35,22.80
2021,09,30,02,36,20.30
2021,09,30,02,37,24.90
2021,09,30,02,38,28.10
2021,09,30,02,39,27.60
2021,09,30,02,40,27.70
2021,09,30,02,41,28.30
2021,09,30,02,42,26.30
2021,09,30,02,43,29.40
2021,09,30,02,44,26.30
2021,09,30,02,45,32.30
2021,09,30,02,46,24.60
2021,09,30,02,47,25.70
2021,09,30,02,48,24.10
2021,09,30,02,49,27.50
2021,09,30,02,50,25.60
2021,09,30,02,51,24.70
2021,09,30,02,52,26.20
2021,09,30,02,53,21.20
2021,09,30,02,54,24.70
2021,09,30,02,55,24.40
2021,09,30,02,56,26.80
2021,09,30,02,57,27.30
2021,09,30,02,58,28.30
2021,09,30,02,59,26.50
2021,09,30,03,00,26.90
2021,09,30,03,01,22.90
2021,09,30,03,02,26.30
2021,09,30,03,03,26.40
2021,09,30,03,04,26.10
2021,09,30,03,05,25.30
2021,09,30,03,06,30.20
2021,09,30,03,07,26.60
2021,09,30,03,08,17.30
2021,09,30,03,09,27.50
2021,09,30,03,10,22.70
2021,09,30,03,11,22.60
2021,09,30,03,12,21.30
2021,09,30,03,13,25.90
2021,09,30,03,14,24.50
2021,09,30,03,15,25.00
2021,09,30,03,16,20.60
2021,09,30,03,17,25.50
2021,09,30,03,18,19.50
2021,09,30,03,19,25.30
2021,09,30,03,20,30.40
2021,09,30,03,21,23.10
2021,09,30,03,22,25.70
2021,09,30,03,23,24.90
2021,09,30,03,24,28.30
2021,09,30,03,25,22.10
2021,09,30,03,26,24.70
2021,09,30,03,27,22.00
2021,09,30,03,28,30.30
2021,09,30,03,29,29.30
2021,09,30,03,30,26.20
2021,09,30,03,31,30.50
2021,09,30,03,32,31.20
2021,09,30,03,33,24.90
2021,09,30,03,34,30.50
2021,09,30,03,35,30.00
2021,09,30,03,36,26.70
2021,09,30,03,37,29.70
2021,09,30,03,38,22.40
2021,09,30,03,39,32.50
2021,09,30,03,40,31.50
2021,09,30,03,41,30.70
2021,09,30,03,42,25.80
2021,09,30,03,43,24.80
2021,09,30,03,44,30.60
2021,09,30,03,45,34.30
2021,09,30,03,46,29.70
2021,09,30,03,47,33.70
2021,09,30,03,48,38.50
2021,09,30,03,49,36.30
2021,09,30,03,50,27.50
2021,09,30,03,51,33.50
2021,09,30,03,52,28.30
2021,09,30,03,53,32.70
2021,09,30,03,54,34.40
2021,09,30,03,55,32.50
2021,09,30,03,56,29.80
2021,09,30,03,57,31.80
2021,09,30,03,58,28.20
2021,09,30,03,59,28.10
2021,09,30,04,00,26.50
2021,09,30,04,01,22.60
2021,09,30,04,02,21.30
2021,09,30,04,03,24.40
2021,09,30,04,04,24.20
2021,09,30,04,05,29.60
2021,09,30,04,06,20.90
2021,09,30,04,07,21.80
2021,09,30,04,08,19.00
2021,09,30,04,09,25.20
2021,09,30,04,10,20.10
2021,09,30,04,11,21.50
2021,09,30,04,12,18.40
2021,09,30,04,13,20.30
2021,09,30,04,14,21.00
2021,09,30,04,15,23.00
2021,09,30,04,16,24.20
2021,09,30,04,17,22.80
2021,09,30,04,18,24.30
2021,09,30,04,19,21.00
2021,09,30,04,20,24.80
2021,09,30,04,21,18.90
2021,09,30,04,22,22.90
2021,09,30,04,23,21.40
2021,09,30,04,24,24.40
2021,09,30,04,25,23.80
2021,09,30,04,26,24.20
2021,09,30,04,27,25.40
2021,09,30,04,28,25.10
2021,09,30,04,29,27.40
2021,09,30,04,30,28.30
2021,09,30,04,31,22.20
2021,09,30,04,32,25.20
2021,09,30,04,33,20.70
2021,09,30,04,34,19.70
2021,09,30,04,35,25.50
2021,09,30,04,36,25.10
2021,09,30,04,37,22.50
2021,09,30,04,38,23.20
2021,09,30,04,39,21.80
2021,09,30,04,40,24.60
2021,09,30,04,41,21.80
2021,09,30,04,42,28.70
2021,09,30,04,43,22.20
2021,09,30,04,44,23.20
2021,09,30,04,45,21.70
2021,09,30,04,46,25.30
2021,09,30,04,47,23.50
2021,09,30,04,48,29.90
2021,09,30,04,49,27.80
2021,09,30,04,50,21.80
2021,09,30,04,51,17.80
2021,09,30,04,52,17.20
2021,09,30,04,53,17.50
2021,09,30,04,54,13.20
2021,09,30,04,55,14.40
2021,09,30,04,56,15.00
2021,09,30,04,57,11.70
2021,09,30,04,58,18.30
2021,09,30,04,59,13.50
2021,09,30,05,00,12.40
2021,09,30,05,01,13.50
2021,09,30,05,02,13.50
2021,09,30,05,03,18.50
2021,09,30,05,04,13.00
2021,09,30,05,05,9.70
2021,09,30,05,06,5.70
2021,09,30,05,07,2.00
2021,09,30,05,08,8.50
2021,09,30,05,09,12.20
2021,09,30,05,10,11.70
2021,09,30,05,11,13.50
2021,09,30,05,12,10.00
2021,09,30,05,13,5.50
2021,09,30,05,14,5.10
2021,09,30,05,15,13.80
2021,09,30,05,16,13.10
2021,09,30,05,17,10.20
2021,09,30,05,18,10.90
2021,09,30,05,19,10.00
2021,09,30,05,20,11.10
2021,09,30,05,21,8.80
2021,09,30,05,22,12.40
2021,09,30,05,23,14.50
2021,09,30,05,24,13.50
2021,09,30,05,25,13.80
2021,09,30,05,26,13.80
2021,09,30,05,27,13.70
2021,09,30,05,28,15.60
2021,09,30,05,29,14.50
2021,09,30,05,30,13.50
2021,09,30,05,31,12.90
2021,09,30,05,32,13.60
2021,09,30,05,33,9.90
2021,09,30,05,34,11.40
2021,09,30,05,35,9.20
2021,09,30,05,36,10.40
2021,09,30,05,37,12.20
2021,09,30,05,38,10.60
2021,09,30,05,39,10.50
2021,09,30,05,40,13.20
2021,09,30,05,41,10.80
2021,09,30,05,42,11.90
2021,09,30,05,43,12.60
2021,09,30,05,44,13.20
2021,09,30,05,45,11.20
2021,09,30,05,46,10.10
2021,09,30,05,47,11.60
2021,09,30,05,48,11.90
2021,09,30,05,49,10.50
2021,09,30,05,50,11.70
2021,09,30,05,51,10.60
2021,09,30,05,52,6.80
2021,09,30,05,53,8.00
2021,09,30,05,54,11.60
2021,09,30,05,55,9.60
2021,09,30,05,56,11.40
2021,09,30,05,57,11.50
2021,09,30,05,58,12.60
2021,09,30,05,59,13.20
2021,09,30,06,00,17.40
2021,09,30,06,01,18.00
2021,09,30,06,02,15.90
2021,09,30,06,03,15.80
2021,09,30,06,04,15.90
2021,09,30,06,05,16.40
2021,09,30,06,06,14.80
2021,09,30,06,07,15.10
2021,09,30,06,08,11.90
2021,09,30,06,09,10.60
2021,09,30,06,10,11.40
2021,09,30,06,11,12.70
2021,09,30,06,12,15.40
2021,09,30,06,13,15.80
2021,09,30,06,14,13.10
2021,09,30,06,15,12.20
2021,09,30,06,16,12.50
2021,09,30,06,17,12.30
2021,09,30,06,18,9.70
2021,09,30,06,19,9.20
2021,09,30,06,20,10.00
2021,09,30,06,21,9.90
2021,09,30,06,22,12.00
2021,09,30,06,23,11.60
2021,09,30,06,24,13.70
2021,09,30,06,25,14.70
2021,09,30,06,26,16.30
2021,09,30,06,27,16.40
2021,09,30,06,28,14.90
2021,09,30,06,29,11.10
2021,09,30,06,30,10.90
2021,09,30,06,31,8.20
2021,09,30,06,32,10.30
2021,09,30,06,33,11.70
2021,09,30,06,34,12.80
2021,09,30,06,35,9.90
2021,09,30,06,36,7.50
2021,09,30,06,37,5.30
2021,09,30,06,38,6.80
2021,09,30,06,39,8.10
2021,09,30,06,40,7.00
2021,09,30,06,41,8.90
2021,09,30,06,42,8.80
2021,09,30,06,43,9.40
2021,09,30,06,44,8.70
2021,09,30,06,45,7.50
2021,09,30,06,46,9.10
2021,09,30,06,47,9.10
2021,09,30,06,48,11.10
2021,09,30,06,49,11.30
2021,09,30,06,50,13.40
2021,09,30,06,51,13.50
2021,09,30,06,52,11.70
2021,09,30,06,53,8.40
2021,09,30,06,54,8.30
2021,09,30,06,55,6.50
2021,09,30,06,56,7.00
2021,09,30,06,57,6.80
2021,09,30,06,58,9.70
2021,09,30,06,59,9.40
2021,09,30,07,00,9.30
2021,09,30,07,01,7.30
2021,09,30,07,02,9.70
2021,09,30,07,03,11.10
2021,09,30,07,04,7.90
2021,09,30,07,05,7.90
2021,09,30,07,06,10.40
2021,09,30,07,07,7.50
2021,09,30,07,08,6.40
2021,09,30,07,09,7.20
2021,09,30,07,10,7.80
2021,09,30,07,11,6.40
2021,09,30,07,12,4.10
2021,09,30,07,13,3.30
2021,09,30,07,14,3.40
2021,09,30,07,15,3.20
2021,09,30,07,16,3.90
2021,09,30,07,17,4.60
2021,09,30,07,18,5.10
2021,09,30,07,19,5.20
2021,09,30,07,20,6.20
2021,09,30,07,21,7.10
2021,09,30,07,22,7.40
2021,09,30,07,23,7.60
2021,09,30,07,24,8.10
2021,09,30,07,25,9.30
2021,09,30,07,26,9.60
2021,09,30,07,27,9.50
2021,09,30,07,28,8.10
2021,09,30,07,29,7.30
2021,09,30,07,30,6.60
2021,09,30,07,31,7.90
2021,09,30,07,32,9.30
2021,09,30,07,33,8.60
2021,09,30,07,34,8.60
2021,09,30,07,35,8.80
2021,09,30,07,36,6.70
2021,09,30,07,37,5.70
2021,09,30,07,38,5.50
2021,09,30,07,39,3.60
2021,09,30,07,40,1.90
2021,09,30,07,41,0.10
2021,09,30,07,42,1.10
2021,09,30,07,43,2.70
2021,09,30,07,44,3.90
2021,09,30,07,45,3.70
2021,09,30,07,46,4.10
2021,09,30,07,47,5.10
2021,09,30,07,48,4.50
2021,09,30,07,49,3.40
2021,09,30,07,50,2.90
2021,09,30,07,51,2.40
2021,09,30,07,52,2.20
2021,09,30,07,53,3.20
2021,09,30,07,54,3.20
2021,09,30,07,55,3.30
2021,09,30,07,56,4.50
2021,09,30,07,57,3.80
2021,09,30,07,58,3.40
2021,09,30,07,59,1.80
2021,09,30,08,00,1.60
2021,09,30,08,01,1.90
2021,09,30,08,02,1.40
2021,09,30,08,03,0.80
2021,09,30,08,04,0.80
2021,09,30,08,05,3.60
2021,09,30,08,06,4.10
2021,09,30,08,07,3.30
2021,09,30,08,08,3.00
2021,09,30,08,09,4.00
2021,09,30,08,10,2.80
2021,09,30,08,11,1.70
2021,09,30,08,12,3.40
2021,09,30,08,13,4.60
2021,09,30,08,14,3.70
2021,09,30,08,15,3.00
2021,09,30,08,16,3.90
2021,09,30,08,17,4.60
2021,09,30,08,18,4.60
2021,09,30,08,19,4.90
2021,09,30,08,20,6.70
2021,09,30,08,21,8.00
2021,09,30,08,22,8.20
2021,09,30,08,23,9.30
2021,09,30,08,24,9.60
2021,09,30,08,25,8.10
2021,09,30,08,26,10.50
2021,09,30,08,27,11.00
2021,09,30,08,28,11.60
2021,09,30,08,29,9.40
2021,09,30,08,30,7.90
2021,09,30,08,31,9.10
2021,09,30,08,32,9.90
2021,09,30,08,33,9.80
2021,09,30,08,34,8.70
2021,09,30,08,35,7.90
2021,09,30,08,36,8.10
2021,09,30,08,37,9.00
2021,09,30,08,38,8.80
2021,09,30,08,39,9.40
2021,09,30,08,40,6.20
2021,09,30,08,41,3.60
2021,09,30,08,42,5.20
2021,09,30,08,43,6.40
2021,09,30,08,44,5.80
2021,09,30,08,45,6.70
2021,09,30,08,46,6.90
2021,09,30,08,47,5.70
2021,09,30,08,48,5.40
2021,09,30,08,49,6.30
2021,09,30,08,50,10.00
2021,09,30,08,51,10.70
2021,09,30,08,52,11.90
2021,09,30,08,53,12.00
2021,09,30,08,54,7.60
2021,09,30,08,55,10.60
2021,09,30,08,56,9.50
2021,09,30,08,57,9.80
2021,09,30,08,58,10.70
2021,09,30,08,59,8.90
2021,09,30,09,00,9.50
2021,09,30,09,01,9.40
2021,09,30,09,02,5.30
2021,09,30,09,03,3.20
2021,09,30,09,04,4.30
2021,09,30,09,05,3.70
2021,09,30,09,06,5.60
2021,09,30,09,07,6.30
2021,09,30,09,08,7.00
2021,09,30,09,09,8.70
2021,09,30,09,10,9.70
2021,09,30,09,11,12.90
2021,09,30,09,12,12.60
2021,09,30,09,13,9.50
2021,09,30,09,14,6.70
2021,09,30,09,15,9.10
2021,09,30,09,16,6.90
2021,09,30,09,17,5.90
2021,09,30,09,18,8.70
2021,09,30,09,19,7.30
2021,09,30,09,20,7.00
2021,09,30,09,21,5.00
2021,09,30,09,22,2.80
2021,09,30,09,23,0.50
2021,09,30,09,24,0.40
2021,09,30,09,25,2.10
2021,09,30,09,26,4.40
2021,09,30,09,27,2.30
2021,09,30,09,28,1.70
2021,09,30,09,29,1.60
2021,09,30,09,30,1.00
2021,09,30,09,31,2.30
2021,09,30,09,32,1.60
2021,09,30,09,33,0.60
2021,09,30,09,34,0.40
2021,09,30,09,35,1.40
2021,09,30,09,36,2.30
2021,09,30,09,37,1.00
2021,09,30,09,38,0.10
2021,09,30,09,39,0.50
2021,09,30,09,40,1.40
2021,09,30,09,41,2.30
2021,09,30,09,42,2.10
2021,09,30,09,43,3.10
2021,09,30,09,44,4.20
2021,09,30,09,45,4.50
2021,09,30,09,46,3.70
2021,09,30,09,47,3.40
2021,09,30,09,48,3.00
2021,09,30,09,49,3.40
2021,09,30,09,50,3.90
2021,09,30,09,51,3.70
2021,09,30,09,52,3.30
2021,09,30,09,53,3.00
2021,09,30,09,54,2.30
2021,09,30,09,55,1.40
2021,09,30,09,56,0.30
2021,09,30,09,57,1.70
2021,09,30,09,58,0.50
2021,09,30,09,59,0.80
2021,09,30,10,00,0.20
2021,09,30,10,01,0.00
2021,09,30,10,02,0.00
2021,09,30,10,03,1.10
2021,09,30,10,04,2.60
2021,09,30,10,05,2.30
2021,09,30,10,06,1.00
2021,09,30,10,07,0.30
2021,09,30,10,08,1.10
2021,09,30,10,09,1.30
2021,09,30,10,10,0.70
2021,09,30,10,11,1.10
2021,09,30,10,12,0.60
2021,09,30,10,13,0.00
2021,09,30,10,14,0.00
2021,09,30,10,15,1.40
2021,09,30,10,16,3.50
2021,09,30,10,17,3.10
2021,09,30,10,18,2.20
2021,09,30,10,19,0.30
2021,09,30,10,20,0.00
2021,09,30,10,21,0.00
2021,09,30,10,22,0.00
2021,09,30,10,23,0.00
2021,09,30,10,24,0.40
2021,09,30,10,25,2.10
2021,09,30,10,26,2.70
2021,09,30,10,27,2.40
2021,09,30,10,28,1.30
2021,09,30,10,29,1.70
2021,09,30,10,30,1.70
2021,09,30,10,31,0.90
2021,09,30,10,32,0.20
2021,09,30,10,33,0.00
2021,09,30,10,34,0.00
2021,09,30,10,35,0.30
2021,09,30,10,36,1.90
2021,09,30,10,37,1.60
2021,09,30,10,38,2.70
2021,09,30,10,39,2.30
2021,09,30,10,40,1.10
2021,09,30,10,41,2.10
2021,09,30,10,42,2.70
2021,09,30,10,43,2.70
2021,09,30,10,44,2.60
2021,09,30,10,45,3.60
2021,09,30,10,46,3.00
2021,09,30,10,47,2.40
2021,09,30,10,48,1.70
2021,09,30,10,49,1.60
2021,09,30,10,50,1.00
2021,09,30,10,51,1.30
2021,09,30,10,52,2.60
2021,09,30,10,53,2.60
2021,09,30,10,54,3.40
2021,09,30,10,55,2.80
2021,09,30,10,56,2.70
2021,09,30,10,57,1.90
2021,09,30,10,58,1.60
2021,09,30,10,59,1.40
2021,09,30,11,00,1.70
2021,09,30,11,01,1.00
2021,09,30,11,02,0.60
2021,09,30,11,03,0.90
2021,09,30,11,04,0.70
2021,09,30,11,05,0.90
2021,09,30,11,06,0.10
2021,09,30,11,07,0.00
2021,09,30,11,08,0.00
2021,09,30,11,09,0.00
2021,09,30,11,10,0.10
2021,09,30,11,11,1.10
2021,09,30,11,12,1.50
2021,09,30,11,13,1.70
2021,09,30,11,14,1.70
2021,09,30,11,15,1.30
2021,09,30,11,16,2.00
2021,09,30,11,17,2.10
2021,09,30,11,18,1.80
2021,09,30,11,19,2.80
2021,09,30,11,20,3.70
2021,09,30,11,21,3.70
2021,09,30,11,22,3.60
2021,09,30,11,23,2.80
2021,09,30,11,24,3.10
2021,09,30,11,25,2.40
2021,09,30,11,26,2.30
2021,09,30,11,27,0.20
2021,09,30,11,28,0.00
2021,09,30,11,29,0.00
2021,09,30,11,30,0.30
2021,09,30,11,31,2.50
2021,09,30,11,32,0.10
2021,09,30,11,33,0.00
2021,09,30,11,34,0.00
2021,09,30,11,35,0.00
2021,09,30,11,36,0.00
2021,09,30,11,37,1.00
2021,09,30,11,38,4.20
2021,09,30,11,39,5.60
2021,09,30,11,40,6.30
2021,09,30,11,41,7.20
2021,09,30,11,42,6.60
2021,09,30,11,43,5.40
2021,09,30,11,44,3.90
2021,09,30,11,45,4.20
2021,09,30,11,46,3.70
2021,09,30,11,47,5.90
2021,09,30,11,48,7.60
2021,09,30,11,49,6.80
2021,09,30,11,50,7.20
2021,09,30,11,51,8.30
2021,09,30,11,52,7.60
2021,09,30,11,53,6.00
2021,09,30,11,54,6.60
2021,09,30,11,55,6.40
2021,09,30,11,56,7.30
2021,09,30,11,57,8.90
2021,09,30,11,58,8.40
2021,09,30,11,59,9.70
2021,09,30,12,00,7.00
2021,09,30,12,01,6.60
2021,09,30,12,02,7.60
2021,09,30,12,03,8.40
2021,09,30,12,04,7.60
2021,09,30,12,05,10.70
2021,09,30,12,06,9.20
2021,09,30,12,07,9.40
2021,09,30,12,08,8.40
2021,09,30,12,09,13.50
2021,09,30,12,10,15.20
2021,09,30,12,11,12.80
2021,09,30,12,12,14.70
2021,09,30,12,13,14.50
2021,09,30,12,14,12.00
2021,09,30,12,15,12.70
2021,09,30,12,16,12.80
2021,09,30,12,17,14.70
2021,09,30,12,18,14.40
2021,09,30,12,19,14.40
2021,09,30,12,20,12.00
2021,09,30,12,21,13.50
2021,09,30,12,22,13.70
2021,09,30,12,23,14.50
2021,09,30,12,24,13.90
2021,09,30,12,25,13.70
2021,09,30,12,26,12.70
2021,09,30,12,27,14.00
2021,09,30,12,28,14.40
2021,09,30,12,29,14.60
2021,09,30,12,30,13.90
2021,09,30,12,31,12.90
2021,09,30,12,32,14.80
2021,09,30,12,33,16.40
2021,09,30,12,34,16.90
2021,09,30,12,35,17.50
2021,09,30,12,36,19.80
2021,09,30,12,37,15.90
2021,09,30,12,38,16.50
2021,09,30,12,39,14.10
2021,09,30,12,40,17.80
2021,09,30,12,41,20.40
2021,09,30,12,42,20.10
2021,09,30,12,43,18.70
2021,09,30,12,44,13.40
2021,09,30,12,45,15.30
2021,09,30,12,46,17.70
2021,09,30,12,47,17.20
2021,09,30,12,48,16.50
2021,09,30,12,49,13.70
2021,09,30,12,50,17.30
2021,09,30,12,51,11.40
2021,09,30,12,52,13.90
2021,09,30,12,53,12.70
2021,09,30,12,54,8.90
2021,09,30,12,55,12.60
2021,09,30,12,56,14.10
2021,09,30,12,57,17.20
2021,09,30,12,58,15.60
2021,09,30,12,59,22.00
2021,09,30,13,00,22.70
2021,09,30,13,01,27.30
2021,09,30,13,02,21.80
2021,09,30,13,03,23.80
2021,09,30,13,04,25.20
2021,09,30,13,05,20.00
2021,09,30,13,06,22.70
2021,09,30,13,07,25.30
2021,09,30,13,08,21.20
2021,09,30,13,09,22.00
2021,09,30,13,10,20.90
2021,09,30,13,11,18.00
2021,09,30,13,12,20.40
2021,09,30,13,13,19.40
2021,09,30,13,14,19.10
2021,09,30,13,15,18.30
2021,09,30,13,16,18.50
2021,09,30,13,17,19.00
2021,09,30,13,18,15.90
2021,09,30,13,19,15.70
2021,09,30,13,20,15.20
2021,09,30,13,21,19.20
2021,09,30,13,22,15.90
2021,09,30,13,23,18.20
2021,09,30,13,24,17.50
2021,09,30,13,25,13.10
2021,09,30,13,26,13.10
2021,09,30,13,27,16.40
2021,09,30,13,28,16.10
2021,09,30,13,29,15.00
2021,09,30,13,30,17.20
2021,09,30,13,31,16.60
2021,09,30,13,32,11.90
2021,09,30,13,33,14.20
2021,09,30,13,34,11.40
2021,09,30,13,35,18.20
2021,09,30,13,36,16.70
2021,09,30,13,37,12.40
2021,09,30,13,38,15.70
2021,09,30,13,39,14.80
2021,09,30,13,40,17.40
2021,09,30,13,41,19.50
2021,09,30,13,42,24.00
2021,09,30,13,43,19.40
2021,09,30,13,44,19.90
2021,09,30,13,45,18.90
2021,09,30,13,46,18.30
2021,09,30,13,47,20.70
2021,09,30,13,48,17.10
2021,09,30,13,49,18.20
2021,09,30,13,50,17.30
2021,09,30,13,51,19.60
2021,09,30,13,52,18.80
2021,09,30,13,53,20.80
2021,09,30,13,54,23.90
2021,09,30,13,55,27.50
2021,09,30,13,56,23.50
2021,09,30,13,57,20.90
2021,09,30,13,58,13.80
2021,09,30,13,59,19.70
2021,09,30,14,00,16.00
2021,09,30,14,01,22.60
2021,09,30,14,02,24.80
2021,09,30,14,03,22.70
2021,09,30,14,04,23.60
2021,09,30,14,05,26.50
2021,09,30,14,06,21.60
2021,09,30,14,07,24.40
2021,09,30,14,08,18.70
2021,09,30,14,09,20.60
2021,09,30,14,10,15.80
2021,09,30,14,11,20.50
2021,09,30,14,12,20.40
2021,09,30,14,13,24.00
2021,09,30,14,14,23.30
2021,09,30,14,15,26.60
2021,09,30,14,16,26.00
2021,09,30,14,17,26.50
2021,09,30,14,18,27.30
2021,09,30,14,19,22.40
2021,09,30,14,20,25.20
2021,09,30,14,21,26.50
2021,09,30,14,22,24.20
2021,09,30,14,23,23.80
2021,09,30,14,24,25.00
2021,09,30,14,25,23.20
2021,09,30,14,26,22.30
2021,09,30,14,27,26.20
2021,09,30,14,28,23.50
2021,09,30,14,29,24.60
2021,09,30,14,30,29.00
2021,09,30,14,31,26.00
2021,09,30,14,32,26.80
2021,09,30,14,33,24.00
2021,09,30,14,34,24.00
2021,09,30,14,35,20.80
2021,09,30,14,36,25.10
2021,09,30,14,37,20.30
2021,09,30,14,38,20.20
2021,09,30,14,39,19.40
2021,09,30,14,40,17.30
2021,09,30,14,41,20.40
2021,09,30,14,42,18.00
2021,09,30,14,43,22.30
2021,09,30,14,44,25.60
2021,09,30,14,45,18.70
2021,09,30,14,46,21.40
2021,09,30,14,47,24.30
2021,09,30,14,48,24.60
2021,09,30,14,49,23.30
2021,09,30,14,50,21.80
2021,09,30,14,51,23.70
2021,09,30,14,52,21.30
2021,09,30,14,53,24.40
2021,09,30,14,54,21.00
2021,09,30,14,55,25.60
2021,09,30,14,56,24.10
2021,09,30,14,57,22.50
2021,09,30,14,58,19.50
2021,09,30,14,59,17.20
2021,09,30,15,00,21.50
2021,09,30,15,01,18.20
2021,09,30,15,02,15.20
2021,09,30,15,03,16.20
2021,09,30,15,04,9.50
2021,09,30,15,05,13.20
2021,09,30,15,06,16.90
2021,09,30,15,07,16.50
2021,09,30,15,08,14.60
2021,09,30,15,09,20.60
2021,09,30,15,10,19.60
2021,09,30,15,11,19.70
2021,09,30,15,12,17.30
2021,09,30,15,13,20.90
2021,09,30,15,14,20.40
2021,09,30,15,15,20.90
2021,09,30,15,16,18.90
2021,09,30,15,17,21.50
2021,09,30,15,18,19.70
2021,09,30,15,19,16.70
2021,09,30,15,20,17.30
2021,09,30,15,21,17.90
2021,09,30,15,22,14.50
2021,09,30,15,23,17.70
2021,09,30,15,24,18.80
2021,09,30,15,25,18.40
2021,09,30,15,26,17.80
2021,09,30,15,27,18.40
2021,09,30,15,28,16.10
2021,09,30,15,29,17.90
2021,09,30,15,30,20.30
2021,09,30,15,31,21.70
2021,09,30,15,32,15.90
2021,09,30,15,33,14.50
2021,09,30,15,34,19.10
2021,09,30,15,35,18.40
2021,09,30,15,36,14.40
2021,09,30,15,37,13.10
2021,09,30,15,38,12.10
2021,09,30,15,39,12.00
2021,09,30,15,40,8.50
2021,09,30,15,41,12.30
2021,09,30,15,42,8.50
2021,09,30,15,43,8.90
2021,09,30,15,44,11.90
2021,09,30,15,45,9.50
2021,09,30,15,46,8.50
2021,09,30,15,47,10.70
2021,09,30,15,48,12.40
2021,09,30,15,49,13.80
2021,09,30,15,50,15.10
2021,09,30,15,51,12.40
2021,09,30,15,52,14.10
2021,09,30,15,53,16.90
2021,09,30,15,54,17.00
2021,09,30,15,55,15.40
2021,09,30,15,56,13.20
2021,09,30,15,57,15.60
2021,09,30,15,58,16.50
2021,09,30,15,59,15.90
2021,09,30,16,00,14.70
2021,09,30,16,01,15.90
2021,09,30,16,02,16.80
2021,09,30,16,03,17.20
2021,09,30,16,04,16.90
2021,09,30,16,05,17.10
2021,09,30,16,06,19.10
2021,09,30,16,07,15.60
2021,09,30,16,08,10.40
2021,09,30,16,09,14.30
2021,09,30,16,10,17.60
2021,09,30,16,11,17.70
2021,09,30,16,12,15.90
2021,09,30,16,13,16.50
2021,09,30,16,14,17.90
2021,09,30,16,15,16.10
2021,09,30,16,16,15.10
2021,09,30,16,17,15.70
2021,09,30,16,18,16.40
2021,09,30,16,19,19.50
2021,09,30,16,20,20.80
2021,09,30,16,21,12.90
2021,09,30,16,22,18.70
2021,09,30,16,23,20.30
2021,09,30,16,24,21.90
2021,09,30,16,25,21.60
2021,09,30,16,26,17.50
2021,09,30,16,27,19.00
2021,09,30,16,28,19.80
2021,09,30,16,29,19.20
2021,09,30,16,30,17.00
2021,09,30,16,31,15.60
2021,09,30,16,32,15.00
2021,09,30,16,33,14.60
2021,09,30,16,34,15.50
2021,09,30,16,35,13.80
2021,09,30,16,36,13.60
2021,09,30,16,37,10.90
2021,09,30,16,38,9.70
2021,09,30,16,39,11.40
2021,09,30,16,40,19.10
2021,09,30,16,41,15.40
2021,09,30,16,42,18.80
2021,09,30,16,43,17.50
2021,09,30,16,44,18.20
2021,09,30,16,45,18.50
2021,09,30,16,46,21.30
2021,09,30,16,47,19.70
2021,09,30,16,48,18.60
2021,09,30,16,49,16.40
2021,09,30,16,50,16.40
2021,09,30,16,51,16.40
2021,09,30,16,52,18.70
2021,09,30,16,53,15.90
2021,09,30,16,54,16.00
2021,09,30,16,55,17.40
2021,09,30,16,56,14.50
2021,09,30,16,57,14.00
2021,09,30,16,58,16.40
2021,09,30,16,59,14.80
2021,09,30,17,00,17.40
2021,09,30,17,01,16.00
2021,09,30,17,02,16.50
2021,09,30,17,03,19.30
2021,09,30,17,04,16.10
2021,09,30,17,05,16.10
2021,09,30,17,06,17.30
2021,09,30,17,07,19.40
2021,09,30,17,08,19.20
2021,09,30,17,09,23.10
2021,09,30,17,10,20.80
2021,09,30,17,11,20.90
2021,09,30,17,12,23.20
2021,09,30,17,13,19.20
2021,09,30,17,14,23.10
2021,09,30,17,15,22.50
2021,09,30,17,16,23.00
2021,09,30,17,17,21.70
2021,09,30,17,18,23.40
2021,09,30,17,19,19.60
2021,09,30,17,20,17.90
2021,09,30,17,21,17.80
2021,09,30,17,22,14.70
2021,09,30,17,23,18.80
2021,09,30,17,24,17.10
2021,09,30,17,25,18.50
2021,09,30,17,26,20.10
2021,09,30,17,27,19.00
2021,09,30,17,28,21.10
2021,09,30,17,29,21.00
2021,09,30,17,30,22.90
2021,09,30,17,31,19.00
2021,09,30,17,32,18.70
2021,09,30,17,33,18.10
2021,09,30,17,34,18.20